Regional Weather Roundup
Issued by NWS

Home | Current Version | Previous Version | Graphics & Text | Print | Product List | Glossary Off
Versions: 1 2 3 4 5 6 7 8 9 10 11 12 13 14 15 16 17 18 19 20 21 22 23 24 25 26 27 28 29 30 31 32 33 34 35 36 37 38 39 40 41 42 43 44 45 46 47 48 49 50

000
ASUS43 KMKX 301900
RWRWI

WISCONSIN REGIONAL WEATHER ROUNDUP
NATIONAL WEATHER SERVICE MILWAUKEE/SULLIVAN WI
200 PM CDT SAT MAY 30 2015

NOTE: "FAIR" INDICATES FEW OR NO CLOUDS BELOW 12,000 FEET WITH NO
SIGNIFICANT WEATHER AND/OR OBSTRUCTIONS TO VISIBILITY.

WIZ001-002-006>008-014>016-023>028-302000-
NORTHWEST WISCONSIN

CITY           SKY/WX    TMP DP  RH WIND       PRES   REMARKS
SUPERIOR ARPT  SUNNY     52  37  56 NE9       30.30S
ASHLAND        SUNNY     52  38  58 E10       30.30F
HAYWARD        PTSUNNY   53  37  54 NE10G20   30.27S
SIREN          MOSUNNY   57  39  50 NE8G16    30.26S
CUMBERLAND     CLOUDY    54  37  54 N9G16     30.25S
RICE LAKE      CLOUDY    55  41  57 N14G20    30.26S
CHETEK         CLOUDY    54  42  65 N8        30.24S
LADYSMITH      CLOUDY    55  44  65 N12G20    30.26R
EAU CLAIRE     CLOUDY    56  45  66 N9        30.22R
MENOMONIE      CLOUDY    56  44  64 N10       30.24R
NEW RICHMOND   CLOUDY    57  42  58 NE14      30.24S
OSCEOLA        PTSUNNY   58  43  57 NE12      30.27F
$$

WIZ003>005-009-010-017-018-302000-
NORTH CENTRAL WISCONSIN

CITY           SKY/WX    TMP DP  RH WIND       PRES   REMARKS
MANITOWISH WTR CLOUDY    47  40  76 NE9       30.25S
ARBOR VITAE    CLOUDY    52  42  69 N9G16     30.24R
WOODRUFF       CLOUDY    52  42  69 N9G16     30.24R
RHINELANDER    CLOUDY    51  40  65 NE12G17   30.23R
EAGLE RIVER    CLOUDY    49  39  70 NE10G16   30.23S
LAND O LAKES   PTSUNNY   50  40  69 N12       30.25R
PHILLIPS       PTSUNNY   53  44  69 N9G21     30.23S
TOMAHAWK       CLOUDY    51  43  73 NE10G16   30.23S
MEDFORD        CLOUDY    55  45  68 N9        30.20R
MERRILL        CLOUDY    57  45  63 NE14      30.20S
$$

WIZ029-030-035-036-043>047-302000-
CENTRAL WISCONSIN

CITY           SKY/WX    TMP DP  RH WIND       PRES   REMARKS
WAUSAU         CLOUDY    58  44  60 E10       30.18R
MOSINEE        CLOUDY    55  46  71 NE14      30.19R
MARSHFIELD     CLOUDY    58  46  64 N12       30.18R
STEVENS POINT  CLOUDY    54  46  76 NE8       30.18S
WAUPACA        CLOUDY    57  48  71 NE9       30.18R
WAUTOMA        NOT AVBL
WISC RAPIDS    CLOUDY    56  47  71 E6        30.19R
CAMP DOUGLAS   NOT AVBL
$$

WIZ011>013-019>022-031-037>040-048>050-302000-
NORTHEAST WISCONSIN

CITY           SKY/WX    TMP DP  RH WIND       PRES   REMARKS
ANTIGO         CLOUDY    53  44  70 N13       30.20S
SHAWANO        CLOUDY    58  46  66 NE14G20   30.19R
OCONTO         CLOUDY    55  44  65 NE12      30.18R
STURGEON BAY   CLOUDY    50  39  66 NE14G21   30.22R
GREEN BAY      CLOUDY    55  47  74 NE13      30.18R
MANITOWOC      NOT AVBL
APPLETON       CLOUDY    52  48  87 NE10      30.18R
CLINTONVILLE   CLOUDY    55  46  71 NE5       30.18R
OSHKOSH        CLOUDY    52  44  74 NE17G23   30.17R
$$

WIZ032>034-041-042-053>061-302000-
SOUTHWEST WISCONSIN

CITY           SKY/WX    TMP DP  RH WIND       PRES   REMARKS
LA CROSSE      CLOUDY    61  51  70 N9        30.17R
SPARTA         CLOUDY    55  53  92 N8        30.18R FOG
VIROQUA        CLOUDY    56  52  86 NE14      30.15S
BOSCOBEL       CLOUDY    58  51  78 NE10G20   30.14S
PRAIRIE DU CHI CLOUDY    57  52  83 NE9       30.13R
PLATTEVILLE    CLOUDY    55  54  95 NE20      30.11R
$$

WIZ056-057-062-063-064-067-068-302000-
SOUTH CENTRAL WISCONSIN

CITY           SKY/WX    TMP DP  RH WIND       PRES   REMARKS
REEDSBURG      DRIZZLE   52  51  95 NE10      30.15S
BARABOO/DELLS  LGT RAIN  52  50  92 NE12G18   30.15S
LONE ROCK      CLOUDY    56  51  84 NE15G25   30.14S
MINERAL POINT  LGT RAIN  55  52  88 NE22G31   30.11R
MADISON        LGT RAIN  53  49  86 NE16G28   30.13R
MIDDLETON      CLOUDY    54  51  92 NE21G28   30.14R
WATERTOWN      LGT RAIN N/A N/A N/A NE14G21   30.12F
MONROE         LGT RAIN  52  50  93 NE26      30.08S
JANESVILLE     LGT RAIN  54  50  87 NE15G24   30.10R FOG
$$

WIZ051-052-058>065-066-070>072-302000-
SOUTHEAST WISCONSIN

CITY           SKY/WX    TMP DP  RH WIND       PRES   REMARKS
MILWAUKEE      RAIN      46  44  93 N16G36    30.11S FOG
WAUKESHA       RAIN      48  48 100 N13G18    30.13S
MILWAUKEE/TIMM NOT AVBL
RACINE         LGT RAIN  46  43  89 N25G33    30.11R FOG
BURLINGTON     RAIN      47  46  96 NE15G28   30.10S
KENOSHA        LGT RAIN  48  46  93 N18G30    30.09R
FOND DU LAC    LGT RAIN  51  46  83 NE12G25   30.17R
SHEBOYGAN      LGT RAIN  48  45  89 NE18G24   30.16R
WEST BEND      RAIN      46  45  93 NE15      30.15R
JUNEAU         DRIZZLE   50  48  94 N14       30.15S
$$

LSZ147-162-302000-
LAKE SUPERIOR

STATION/POSITION TIME  TEMP    WIND        PRES    WAVE
                       AIR SEA DIR/SP/G            HT/PER
                 (UTC) (F)     (DEG/KT/KT) (MB)    (FT/S)
W MID LAKE BUOY  1750   38 37   60/  8/  8   N/A     2/ 4
DEVILS ISLAND    1800   43      80/  6/  6   N/A
PORT WING        1840   49      40/ 11/ 12   N/A
SAXON HARBOR     1800   45      50/ 13/ 16   N/A
$$

LMZ867-665-643>646-302000-
LAKE MICHIGAN

STATION/POSITION TIME  TEMP    WIND        PRES    WAVE
                       AIR SEA DIR/SP/G            HT/PER
                 (UTC) (F)     (DEG/KT/KT) (MB)    (FT/S)
CHAMBERS ISLAND  1800   51      10/ 17/ 20   N/A
N MID LAKE BUOY  1750   43 37  320/ 16/ 16   N/A     1/ 4
NORTHPORT PIER   1800   50     350/ 20/ 22   N/A
SISTER BAY       1848   52     360/ 18/ 23   N/A
ALGOMA LAKESHORE 1823          360/ 12/ 18   N/A
KEWAUNEE LAKESHO 1800   47      20/  5/  8   N/A
SHEBOYGAN LAKESH 1800   44      10/ 19/ 20   N/A
PORT WASHINGTON  1800   48      20/ 12/ 22   N/A
ATWATER BUOY     1800   47      30/ 25/ 35   N/A
MILWAUKEE LAKESH 1800   46      10/ 24/ 32   N/A
S MID LAKE BUOY  1750   41 38  350/ 17/ 21   N/A     2/ 4
KENOSHA   LAKESH 1800   47      10/ 29/ 36   N/A
$$

TC  - TEMPERATURE IN CELSIUS
VSB - VISIBILITY IN STATUTE MILES
WCI - WIND CHILL INDEX
HX  - HEAT INDEX




USA.gov is the U.S. government's official web portal to all federal, state and local government web resources and services.